Location: Chevoux
(46.3801°N, 4.9476°E)
Time: 12:15:16
(UTC+00:00)

USA 234 - Pass Details

Date: 28 January 2021
Orbit: 1100 x 1107 km, 123.0° (Epoch: 01 March)

Event Time Altitude Azimuth Distance (km) Brightness Sun altitude
Exits shadow 18:05:52 17° 54° (NE) 2,475 4.6 -15.1°
Maximum altitude 18:10:07 35° 359° (N) 1,706 4.2 -15.8°
Drops below altitude 10° 18:15:54 10° 297° (WNW) 2,967 6.3 -16.8°
Sets 18:18:36 0° 289° (WNW) 3,926 7.3 -17.2°
